User: anonymous   Login
Location: Unspecified
(0.0000°N, 0.0000°E)
Time: 20:44:45
(UTC+00:00)
Language:

STARLINK-31615 - Orbit

View from above orbital plane
View from above orbital plane
View from above satellite
View from above satellite

Ground track
Ground track

The orbit is defined by the following mean orbital elements,

1 59413U          26145.57497267 +.00000000 +00000-0 -11670-3 0 00009
2 59413  43.0039 335.0895 0000878 274.1400  85.9352 15.27555834    04
Epoch (UTC): 25 May 2026 13:47:57
Eccentricity: 0.0000878
inclination: 43.0039°
perigee height: 483 km
apogee height: 484 km
right ascension of ascending node: 335.0895°
argument of perigee: 274.1400°
revolutions per day: 15.27555834
mean anomaly at epoch: 85.9352°

The dashed part of the orbit path shows where the satellite is in the earth's shadow,  

DLR